Volver al catálogo

STARLINK-6092

ActivoComunicacionesVLEO
NORAD 56121·PAYLOAD·🇺🇸 United States

Lanzado Mar 29, 2023 desde Cape Canaveral Space Force Station

Loading…

Próximos Pases (próximas 24 horas)

TLE

ActualizadoSource: CelesTrak SupGP

Época: Sep 14, 2026, 21:06 UTC

1 56121C 23046AE  26257.87965278 -.00022889  00000+0 -82921-3 0  2576
2 56121  43.0002 158.7572 0001066 247.4745  47.7095 15.27582549    18

Sigue STARLINK-6092 en tiempo real con AllMySat

Download on the App Store